Location: Dal�� Lhota
(48.7500°N, 14.0167°E)
Time: 23:16:43
(UTC+00:00)

DMSP B5D2-2 - Pass Details

Date: 24 September 2020
Orbit: 790 x 806 km, 98.3° (Epoch: 25 October)

Event Time Altitude Azimuth Distance (km) Brightness Sun altitude
Rises 19:14:47 0° 12° (NNE) 3,334 7.5 -22.8°
Reaches altitude 10° 19:17:08 10° 11° (NNE) 2,399 6.7 -23.1°
Maximum altitude 19:22:26 76° 287° (WNW) 836 4.2 -23.9°
Drops below altitude 10° 19:27:41 10° 203° (SSW) 2,377 6.5 -24.7°
Sets 19:30:00 0° 202° (SSW) 3,302 7.2 -25.0°
